Theta_e
325 324 327 323 307 305 300 301 304 304 304 306 307 307 307 308 305 302 320 329 331 333 344 349 350 352 351 351 351 349 348 349 349 348 346 345 346 346 346 346 347 346 345 344 342 339 337 337 335
322 321 324 317 302 297 298 303 303 305 306 307 306 307 306 306 312 314 320 327 331 333 343 347 347 350 351 351 351 349 348 348 349 348 347 346 344 342 340 342 345 344 341 340 337 333 331 330 328
319 318 313 308 303 297 299 303 304 304 306 306 306 308 308 308 311 316 323 328 331 333 341 345 345 350 350 351 351 349 348 348 348 348 347 345 341 338 337 337 337 337 337 335 331 329 327 325 325
320 317 312 302 298 302 302 305 306 306 305 305 306 305 308 312 313 317 322 330 332 333 338 342 346 349 350 350 350 349 348 349 348 347 343 340 338 338 334 335 337 336 334 331 327 326 325 323 322
318 313 303 299 298 301 304 305 305 304 305 305 305 305 306 310 313 316 324 330 332 333 338 342 344 347 349 349 350 349 348 349 347 343 341 340 339 336 334 333 334 332 329 326 325 325 322 321 319
310 310 299 297 298 301 304 306 304 304 305 305 304 305 308 311 311 315 323 329 332 333 338 341 338 341 344 346 348 348 349 347 344 341 338 339 336 334 331 330 330 328 325 324 324 322 320 319 317
306 304 298 298 299 301 304 304 304 305 304 305 307 304 309 310 311 315 322 328 331 334 336 339 341 340 336 340 341 343 344 343 343 341 338 338 335 331 329 327 326 325 323 323 321 320 319 317 315
311 307 299 300 299 298 304 303 305 305 305 306 307 305 306 311 312 317 322 326 329 332 334 336 338 340 340 340 332 335 339 339 339 337 334 332 330 329 327 325 325 323 323 321 320 319 317 315 312
308 302 298 298 298 300 304 303 304 306 305 305 307 308 312 309 312 316 319 322 325 326 330 333 335 337 337 337 333 330 332 334 333 332 328 325 328 325 322 322 325 323 321 319 318 316 314 311 308
306 301 300 303 303 302 304 303 305 304 305 306 306 310 310 308 311 312 315 317 321 324 326 329 331 333 334 333 336 337 337 337 336 334 332 329 325 323 320 318 321 324 320 317 315 313 308 302 304
305 301 304 303 303 303 303 303 304 304 303 307 306 309 311 308 309 310 312 315 318 322 325 325 327 330 331 331 332 334 335 336 335 333 330 326 321 319 318 318 319 320 315 314 311 307 303 303 303
301 305 305 305 304 303 302 305 303 304 306 309 310 311 310 309 308 309 310 313 315 318 322 324 325 326 329 330 330 331 332 333 330 329 326 321 319 317 315 316 317 317 314 311 307 303 303 302 300
301 303 305 305 304 304 305 303 303 304 308 309 309 308 307 308 309 310 311 312 314 315 318 321 324 324 326 327 327 328 328 329 328 325 322 320 317 314 313 314 314 313 311 307 302 302 301 300 299
302 302 302 303 302 303 300 302 301 304 307 306 307 307 308 307 308 308 309 308 310 313 315 318 321 323 324 325 325 326 326 327 327 323 320 318 316 312 310 311 311 309 306 302 302 301 300 300 299
301 298 301 301 301 300 301 298 298 305 305 304 305 307 307 307 308 307 309 309 310 311 313 315 318 320 322 322 324 324 324 323 324 321 319 315 314 310 308 308 308 305 302 301 300 299 299 298 297
297 296 294 300 298 299 300 294 302 305 302 302 304 305 306 307 308 310 310 309 310 310 310 312 314 317 319 321 322 322 322 321 320 320 318 314 311 309 306 306 304 302 300 299 299 298 297 297 297
296 292 293 295 299 297 298 295 301 303 301 301 303 304 305 306 307 309 310 310 309 310 309 309 311 313 316 319 320 321 320 319 318 318 316 313 310 307 305 304 303 300 298 298 298 297 297 296 296
293 293 293 292 298 297 295 294 298 300 300 300 301 303 304 305 306 308 308 308 309 309 309 309 308 310 313 316 318 318 317 317 317 316 314 312 309 305 304 302 302 299 298 297 297 296 296 297 296
294 293 292 295 298 295 295 295 297 300 300 300 301 303 304 304 306 307 307 307 306 307 306 306 306 306 310 311 312 314 313 313 313 314 312 311 309 305 303 302 300 298 297 297 297 296 294 294 295
294 292 292 296 297 293 294 294 297 299 299 301 301 302 303 303 303 304 304 304 304 304 305 305 304 304 307 309 311 311 311 311 311 311 310 309 307 304 302 302 300 298 297 297 296 295 294 295 294
293 291 292 292 294 295 293 294 295 300 299 301 300 302 301 301 300 301 301 300 300 300 300 301 302 303 304 307 308 308 305 306 306 306 306 305 306 304 302 301 300 298 298 296 296 296 296 294 293
290 296 293 291 290 289 293 287 295 298 298 298 300 301 301 301 300 298 297 297 297 297 298 299 300 300 301 303 304 303 302 301 302 303 303 303 303 302 301 301 299 299 297 297 297 296 297 298 293
293 293 291 290 290 288 291 287 295 294 294 297 299 299 299 298 297 296 296 296 297 296 296 297 298 298 299 300 301 301 301 302 303 301 302 301 301 301 300 299 298 298 297 297 296 295 295 296 297
292 292 290 290 290 285 291 289 291 293 294 296 296 296 295 295 296 295 296 297 296 296 296 295 295 295 296 298 299 299 299 299 299 298 298 299 299 298 298 298 298 297 296 296 295 295 295 295 295
291 290 287 286 285 284 289 286 291 296 296 293 293 293 293 294 294 294 293 294 295 294 294 294 294 293 294 294 295 296 297 298 297 298 297 298 297 295 296 296 296 296 296 295 295 294 294 294 294
291 291 287 280 282 285 285 285 291 296 294 293 293 292 292 292 293 293 293 293 293 293 293 294 293 293 293 293 293 294 294 295 296 296 297 297 297 296 296 295 295 295 295 294 294 293 293 293 293
290 287 293 286 287 283 287 292 297 297 291 292 291 290 288 289 290 291 292 293 292 292 292 292 291 291 292 293 293 293 293 293 293 294 295 295 296 295 296 294 293 294 294 293 293 291 291 291 291
291 293 286 285 278 278 283 286 288 290 289 289 287 286 287 288 288 289 290 291 291 292 292 291 292 290 290 292 292 293 293 292 292 293 292 292 293 293 293 293 292 293 293 292 291 291 291 290 290
289 286 286 286 285 280 279 284 292 291 288 286 285 285 285 286 287 288 289 291 291 290 290 290 290 289 289 289 290 291 292 292 291 291 292 291 292 291 291 291 291 291 291 291 290 290 290 288 289
291 289 289 283 282 284 283 283 289 287 286 284 282 283 284 285 286 288 288 288 289 288 288 288 288 288 288 288 288 288 289 289 289 290 290 291 290 291 290 290 289 289 289 289 289 288 288 287 287
Wind_Speed
1 4 3 4 5 3 3 1 3 3 2 1 3 3 5 6 4 6 3 7 6 14 16 17 15 16 15 13 11 11 10 10 11 11 11 9 8 10 9 9 9 10 10 10 11 8 6 7 6
2 2 2 1 4 4 3 1 3 2 2 1 4 4 5 7 4 4 3 9 7 14 14 17 12 15 15 14 13 12 11 10 11 11 12 11 9 7 6 5 9 8 7 10 9 6 6 6 6
1 3 3 2 2 3 3 1 2 2 3 4 3 3 4 2 2 2 2 11 9 13 14 13 11 13 13 13 14 14 13 11 12 11 13 12 7 6 5 3 0 3 6 9 5 6 6 6 8
1 3 3 4 7 8 6 6 7 9 2 3 4 7 3 4 1 0 2 13 11 13 12 11 12 13 12 12 14 14 14 14 14 14 9 9 5 7 5 5 5 7 8 8 7 7 8 7 8
1 1 2 3 5 5 7 7 6 5 3 3 2 2 4 3 2 1 5 11 11 14 13 13 9 11 11 12 13 13 13 14 15 11 8 8 8 8 8 7 8 8 8 8 9 9 8 8 8
2 2 4 4 4 5 7 5 4 4 2 1 4 5 4 3 4 5 5 10 10 13 13 13 11 10 10 10 11 11 12 12 10 11 8 9 10 9 9 9 9 9 9 8 9 8 8 8 8
2 2 3 5 6 5 1 1 3 3 2 4 1 5 3 6 1 3 5 8 9 12 13 13 14 14 10 11 11 10 10 11 12 11 11 10 10 11 10 9 9 10 10 9 9 9 8 8 8
1 2 3 4 3 5 2 3 1 6 5 2 2 5 5 3 3 3 5 8 10 11 13 13 13 14 15 14 11 9 11 11 10 12 12 11 10 9 8 8 10 10 10 10 9 9 9 9 9
2 4 5 4 5 2 3 4 4 3 9 5 8 9 9 4 4 5 6 9 10 11 14 13 14 14 14 15 13 12 10 11 10 10 11 11 10 11 11 9 9 11 10 10 9 9 9 9 9
5 4 5 4 5 6 6 5 6 6 13 16 13 15 13 5 7 10 11 12 15 16 17 16 16 16 15 11 13 15 14 12 13 13 14 11 10 10 9 8 7 10 10 10 10 9 7 3 3
4 8 6 7 12 7 8 9 5 9 15 15 16 15 10 10 13 14 15 16 16 16 13 17 16 16 16 13 11 8 8 9 10 15 14 12 9 8 8 7 7 8 9 7 8 7 4 4 3
6 12 10 5 4 4 7 6 9 14 25 22 21 17 14 15 15 15 17 16 16 15 17 17 18 16 17 11 11 11 10 10 10 12 16 11 8 10 9 7 10 8 7 7 6 4 4 5 4
9 10 10 11 9 10 12 21 17 20 23 24 20 16 17 17 18 16 16 15 14 17 16 17 18 18 16 17 12 13 13 12 13 13 14 12 11 11 10 10 9 9 8 7 7 6 5 4 4
2 7 11 9 14 12 10 23 5 12 11 15 15 16 16 14 16 15 13 16 16 15 18 17 20 20 19 17 18 13 13 14 13 13 14 16 12 11 11 11 10 9 8 7 6 6 6 5 4
4 11 16 16 10 9 9 12 15 20 6 14 19 17 14 15 13 15 14 14 15 16 17 19 21 21 22 22 19 15 13 13 13 13 17 18 15 14 13 11 10 9 8 9 7 6 5 5 4
6 4 10 7 5 3 8 19 19 12 7 14 17 21 22 25 23 18 15 16 16 16 16 18 14 19 22 20 16 13 13 13 13 13 13 17 17 16 14 11 10 10 8 8 8 7 6 5 5
6 11 13 16 2 4 10 12 17 14 15 26 24 24 23 21 21 18 15 14 16 16 15 15 17 20 20 19 15 15 16 13 13 13 13 18 17 17 13 11 10 12 9 9 8 8 8 7 6
15 13 10 12 13 10 17 21 20 25 22 26 25 25 18 18 17 15 14 14 15 14 11 12 12 16 16 12 13 12 12 12 13 13 13 18 14 17 14 11 12 12 10 10 9 10 7 7 7
11 15 19 23 22 17 21 20 20 22 23 25 24 18 14 14 12 11 10 12 11 9 8 10 11 12 11 12 12 12 13 12 12 12 17 19 16 19 16 11 12 13 12 12 13 9 11 6 8
14 15 21 18 17 5 16 20 25 19 18 19 16 14 12 12 12 16 18 16 17 17 14 8 8 10 11 10 10 11 11 11 11 10 13 15 17 18 16 15 14 16 11 14 14 13 8 5 10
13 15 17 17 14 14 13 14 6 10 8 8 6 8 4 10 16 18 20 21 21 20 18 15 10 7 9 11 7 7 4 5 9 10 10 12 16 16 15 17 14 14 13 12 15 14 14 9 9
14 10 16 12 7 11 9 15 9 9 13 4 8 9 12 16 17 18 19 20 20 19 16 15 14 7 5 8 7 11 9 9 7 9 10 11 16 16 16 15 15 14 11 13 13 11 11 9 10
6 2 2 2 7 10 3 9 3 4 5 3 2 11 16 17 17 19 19 18 18 18 17 21 17 13 7 4 7 7 10 8 5 6 9 13 12 16 16 16 15 13 12 13 14 14 14 10 9
2 2 1 1 3 11 7 7 6 1 1 2 15 14 14 15 15 17 18 17 22 22 21 19 19 16 12 8 6 7 10 9 6 6 6 7 9 10 15 14 14 13 13 14 14 15 16 12 10
4 4 8 9 7 15 4 7 11 11 6 7 11 12 13 14 15 17 22 22 22 23 20 17 21 20 16 11 8 8 9 11 10 10 7 8 8 9 13 16 14 13 14 13 12 14 15 15 12
9 7 6 10 16 19 6 13 11 5 12 12 14 14 12 16 16 17 18 17 17 18 20 20 19 18 18 17 15 10 8 7 7 9 8 7 8 9 12 15 15 16 14 13 13 10 10 12 12
5 8 4 12 16 12 17 25 18 9 10 10 11 11 14 14 14 15 16 16 16 16 18 18 19 18 18 19 16 14 11 9 9 10 10 7 8 7 10 13 16 16 15 16 15 12 14 13 13
9 7 9 6 9 22 16 22 15 9 8 7 9 10 10 10 12 12 12 13 13 14 14 16 16 18 17 15 14 13 15 12 10 8 9 10 9 8 9 12 14 15 15 15 16 14 14 14 12
9 8 8 7 8 11 14 14 11 5 7 7 8 9 10 11 11 11 12 11 11 12 14 14 14 15 16 16 16 15 15 15 12 9 9 9 9 9 10 10 11 14 15 15 16 17 16 17 16
6 16 18 13 11 11 15 17 6 11 7 4 5 3 5 8 11 9 9 11 11 12 12 13 13 14 14 13 14 14 15 15 15 15 13 11 11 10 11 11 12 12 14 15 17 17 15 17 18
Wind_Direction
354 353 303 245 253 255 258 181 321 267 244 15 112 260 319 316 288 336 86 183 178 167 172 177 177 176 175 173 169 163 165 160 159 154 150 149 130 123 117 97 118 110 107 95 77 64 75 82 76
19 272 232 257 265 271 78 64 240 344 1 225 230 228 248 284 262 283 233 177 180 171 176 180 176 176 178 176 173 173 180 181 174 165 151 146 140 129 121 133 115 112 101 80 80 99 91 87 73
109 336 281 318 280 312 353 190 19 357 282 244 254 250 295 248 206 301 40 166 171 177 179 182 174 182 182 179 176 178 186 192 182 175 160 149 134 151 152 161 115 96 91 105 119 103 103 95 85
227 172 136 268 286 279 268 305 302 305 157 226 290 264 225 277 277 131 157 165 172 177 185 163 177 190 190 184 182 188 191 192 184 163 140 139 141 146 176 186 169 134 145 135 134 123 114 103 91
63 218 223 261 272 274 262 293 295 291 298 200 213 295 263 202 225 199 177 181 183 179 184 180 185 178 180 190 192 193 194 191 173 152 146 167 164 159 188 178 153 151 149 145 140 130 121 107 96
144 280 237 269 276 269 279 271 272 257 262 166 223 261 265 124 216 197 188 192 196 187 186 190 188 190 183 182 187 185 190 178 169 141 171 201 187 194 187 182 171 161 156 152 138 131 123 119 109
237 229 294 289 288 281 237 173 232 293 264 250 325 267 283 234 186 176 191 198 199 196 193 195 197 199 196 193 183 182 183 179 167 156 198 188 185 187 189 186 180 172 162 152 146 138 128 116 107
161 242 213 224 276 281 191 214 230 260 313 97 232 242 282 98 123 162 183 195 201 201 205 204 206 205 205 203 201 201 187 190 178 177 201 185 162 182 185 179 188 177 161 155 147 140 132 121 109
215 234 245 246 214 255 177 245 165 303 273 224 207 248 287 127 157 185 189 202 206 211 210 209 208 210 211 210 202 209 196 190 194 179 158 155 189 190 181 192 175 177 164 159 152 140 128 111 94
232 236 246 232 227 257 278 253 288 260 263 260 257 251 243 214 223 230 221 219 212 212 208 208 209 208 208 208 209 208 206 207 205 198 184 189 192 191 191 179 206 165 161 161 153 138 126 177 136
179 245 246 237 243 263 279 274 242 260 272 264 279 292 283 237 239 239 240 237 228 223 212 210 209 207 204 203 207 206 205 205 201 196 189 188 185 179 186 181 185 174 168 170 163 154 183 152 146
233 244 242 263 222 227 262 290 254 247 263 278 285 290 279 264 254 242 243 240 235 228 219 212 210 207 208 205 205 204 204 200 196 195 188 182 184 187 186 188 183 181 183 171 173 174 158 148 128
238 254 252 247 248 253 273 264 266 267 267 279 278 275 267 269 263 260 254 257 245 236 227 219 210 211 209 207 206 207 206 202 200 195 192 190 188 187 184 189 186 185 181 180 178 169 164 149 139
336 278 278 274 255 243 241 270 299 254 273 281 283 277 280 265 265 269 253 248 237 239 232 220 214 211 207 208 210 207 205 201 202 197 194 195 191 189 189 186 189 185 186 181 177 170 167 165 159
330 299 293 265 256 233 220 264 234 268 283 275 283 287 293 279 267 259 265 250 239 232 234 222 214 210 211 210 209 205 205 203 201 200 197 194 194 191 189 188 188 185 181 176 169 168 170 164 155
262 253 280 300 153 169 202 277 287 318 311 293 289 290 286 281 288 288 274 260 255 250 231 229 216 213 213 212 211 207 207 205 205 203 198 198 195 192 191 188 189 179 178 178 177 175 170 172 174
219 272 268 294 231 128 215 282 293 292 290 288 287 284 284 296 293 296 294 278 265 257 243 231 219 219 217 218 215 210 211 208 209 205 202 198 196 194 191 192 186 175 179 185 182 177 178 174 174
278 271 258 271 290 279 287 273 277 285 282 277 285 285 299 292 305 323 312 306 292 283 263 246 227 222 216 216 216 216 215 213 212 208 206 197 194 192 194 192 183 180 179 182 184 178 179 179 158
286 280 283 278 286 298 290 295 293 282 281 281 283 296 299 302 326 331 351 339 322 310 291 262 245 230 204 207 209 211 217 217 221 214 209 203 196 190 191 191 186 186 185 185 183 174 170 161 161
260 270 270 279 282 286 286 298 292 291 268 271 287 299 305 328 12 19 18 14 3 355 344 314 257 238 223 216 210 211 216 224 228 221 222 215 204 196 192 187 185 186 184 187 186 179 173 164 183
247 256 272 273 316 277 298 279 248 280 274 297 281 281 341 36 22 16 18 18 12 7 354 342 319 253 223 229 223 217 259 226 212 218 225 225 220 206 201 197 187 185 187 186 187 188 179 170 189
274 268 264 281 302 299 18 304 297 271 278 64 37 74 55 31 31 34 25 23 18 8 3 2 4 334 256 215 224 223 236 238 229 224 212 209 220 220 214 206 197 191 192 192 189 188 192 181 176
265 34 324 314 287 302 301 267 345 203 240 122 69 54 41 37 31 30 29 29 26 22 16 21 19 16 349 281 236 234 239 250 269 252 220 215 211 216 212 212 208 202 196 195 190 189 194 198 187
137 285 198 181 286 270 318 222 345 162 183 53 83 58 49 39 37 31 28 27 31 32 28 22 25 24 8 339 291 267 269 260 254 248 234 222 214 216 217 208 205 206 206 201 193 191 196 195 201
189 273 287 265 244 269 92 240 252 285 41 48 71 77 54 49 39 35 32 26 20 22 28 35 30 23 16 2 341 313 290 281 271 260 240 223 214 214 216 212 215 208 207 211 208 199 197 197 198
190 207 242 283 277 283 125 259 258 109 88 73 61 54 44 39 33 34 32 30 29 23 20 23 31 26 21 19 5 338 310 291 282 276 263 244 230 224 218 210 210 211 211 212 208 214 216 206 204
146 220 268 266 267 280 267 264 266 172 85 74 61 50 40 35 32 29 23 26 18 24 22 21 20 23 19 18 12 9 344 319 294 289 279 262 255 255 230 215 218 216 210 204 206 208 206 208 209
253 318 253 214 256 251 245 260 264 179 126 88 56 44 36 33 33 31 24 23 17 17 18 20 18 15 16 14 13 8 9 355 328 308 286 279 271 246 228 228 224 224 217 209 204 215 208 205 208
249 239 231 275 253 260 265 258 319 21 83 80 50 31 29 21 17 10 12 21 21 15 11 12 16 12 10 9 2 6 8 4 5 346 326 304 287 263 246 232 222 222 220 218 213 216 216 206 206
260 259 242 240 239 230 251 250 84 105 104 130 131 77 46 31 7 8 15 5 11 8 8 7 5 9 7 2 359 1 1 0 360 358 351 332 310 295 270 255 241 225 222 220 221 219 216 210 206